Lid_Strength_Index
6 5 5 4 4 3 3 3 2 2 2 2 2 1 1 1 1 1 2 2 2 2 1 2 1 1 1 1 1 0 1 1 1
6 6 5 4 4 3 3 3 3 2 2 2 2 1 1 1 2 1 1 2 2 1 1 0 0 0 0 1 0 1 1 1 1
6 5 5 4 4 3 3 3 2 2 2 2 2 1 1 1 1 1 1 2 1 1 1 1 1 1 0 1 0 0 1 1 1
6 6 5 4 4 3 3 2 2 2 2 2 2 1 1 1 1 1 1 1 1 2 2 1 2 2 2 2 1 1 1 1 1
6 5 5 4 4 3 3 3 3 2 2 2 2 1 1 1 1 1 1 1 1 1 3 1 1 1 1 1 1 1 1 1 1
6 6 5 4 4 4 3 3 3 3 2 2 2 1 2 2 2 1 1 1 1 1 1 1 1 1 1 1 1 1 1 1 1
6 5 7 4 4 4 3 3 3 3 2 2 2 2 2 2 2 1 1 1 1 1 1 1 1 1 1 1 1 1 1 1 1
6 6 5 5 5 4 4 3 3 3 2 2 2 2 2 2 1 1 1 1 1 2 1 1 1 1 1 1 1 1 1 1 1
6 6 5 5 4 4 4 4 3 3 2 2 2 2 2 2 2 1 2 1 1 1 1 1 1 1 1 1 1 2 3 2 2
6 6 5 5 4 4 3 3 3 3 3 2 2 2 2 2 2 2 2 1 2 2 1 1 1 1 2 2 1 3 3 2 1
6 5 5 5 4 4 3 3 3 2 2 2 2 3 2 2 2 2 2 2 2 2 2 2 2 2 2 2 1 3 4 2 1
6 5 5 4 3 3 3 3 2 2 3 2 3 3 2 2 2 2 2 2 2 2 3 2 2 2 2 2 2 4 5 4 2
4 4 4 4 3 3 3 3 2 3 3 3 3 3 2 2 2 2 2 2 3 2 2 2 2 2 1 2 1 4 5 4 2
4 4 4 3 3 3 3 2 2 3 3 3 2 2 2 2 2 2 2 2 2 3 2 2 2 2 2 2 2 2 4 6 2
5 4 4 3 3 3 3 2 3 3 3 2 2 2 2 2 2 2 2 3 3 2 3 3 4 3 3 2 3 7 5 7 6
5 4 5 3 4 4 3 2 2 3 3 2 2 2 3 3 3 3 2 3 3 3 3 3 3 3 3 3 3 3 8 8 7
5 4 5 5 4 4 4 3 2 2 2 2 3 4 4 4 4 4 3 2 2 2 3 3 3 3 4 4 6 5 5 5 5
6 5 4 6 4 4 4 3 3 2 3 3 4 4 4 4 3 3 2 3 4 2 3 3 4 3 4 4 5 5 7 7 6
5 4 4 4 4 4 3 3 3 4 3 3 4 4 3 3 2 3 3 3 5 11 11 12 10 8 6 7 8 10 11 11 11
4 4 4 4 5 3 3 3 3 3 3 3 3 3 3 3 4 4 3 4 4 5 8 10 11 11 11 10 10 12 12 11 11